Location: Oshawa
(43.9000°N, 78.8670°W)
Time: 00:46:38
(UTC-04:00)

Cosmos 1408 Rocket - Visible Passes

Search period start: 24 August 2017 00:00
Search period end: 03 September 2017 00:00
Orbit: 601 x 631 km, 82.6° (Epoch: 23 August)

Date Brightness Start Highest point End Pass type
(mag) Time Alt. Az. Time Alt. Az. Time Alt. Az.
24 Aug 6.5 00:33:50 10° NE 00:33:57 10° NE 00:33:57 10° NE visible
24 Aug 6.0 02:09:50 10° NNW 02:11:02 18° NNW 02:11:02 18° NNW visible
25 Aug 6.3 00:49:12 10° NNE 00:50:07 14° NNE 00:50:07 14° NNE visible
25 Aug 6.2 02:26:35 10° NNW 02:27:11 13° NNW 02:27:11 13° NNW visible
26 Aug 6.2 01:05:10 10° N 01:06:17 17° NNE 01:06:17 17° NNE visible
27 Aug 6.2 01:21:26 10° N 01:22:28 17° N 01:22:28 17° N visible
28 Aug 6.3 01:37:56 10° NNW 01:38:40 15° NNW 01:38:40 15° NNW visible
29 Aug 6.4 00:17:20 10° NNE 00:17:47 12° NNE 00:17:47 12° NNE visible
29 Aug 6.5 01:54:39 10° NNW 01:54:52 11° NNW 01:54:52 11° NNW visible
30 Aug 6.4 00:33:17 10° N 00:34:00 14° NNE 00:34:00 14° NNE visible
31 Aug 6.4 00:49:32 10° N 00:50:14 14° N 00:50:14 14° N visible
01 Sep 6.6 01:06:00 10° NNW 01:06:28 13° NNW 01:06:28 13° NNW visible
01 Sep 6.5 23:45:28 10° NNE 23:45:37 11° NNE 23:45:37 11° NNE visible
